Location: Wald
(31.7579°N, 86.6655°W)
Time: 12:25:24
(UTC+00:00)

Cosmos 1825 Rocket - Pass Details

Date: 14 July 2020
Orbit: 603 x 631 km, 82.5° (Epoch: 08 August)

Event Time Altitude Azimuth Distance (km) Brightness Sun altitude
Rises 01:32:47 0° 180° (S) 2,894 6.7 -8.1°
Reaches altitude 10° 01:35:00 10° 178° (S) 1,995 5.8 -8.5°
Maximum altitude 01:39:25 72° 95° (E) 665 3.5 -9.3°
Drops below altitude 10° 01:43:52 10° 11° (N) 2,015 6.5 -10.1°
Sets 01:46:07 0° 9° (N) 2,926 7.4 -10.5°
